Theta_e
348 349 351 357 358 360 362 362 363 365 365 365 365 364 364 365 365 365 365 365 365 365 365 365 365 365 365 365 364 363 363 363 363 362 363 362 362 362 362 362 362 362 362 362 363 362 362 362 362 363 364 363 364 363 363 363 364 363 362 363 362 362 362 361 362 362 362 362 361 360 361 362 361 360 360 359 360 358 358 360 358 356 357 358 358
346 350 353 356 360 361 362 364 365 365 365 365 365 365 365 365 365 365 365 365 365 365 365 365 365 365 364 364 364 363 363 362 362 362 362 362 362 362 362 362 362 362 362 362 363 362 361 362 361 362 363 363 363 362 363 364 363 362 362 362 362 362 361 362 361 361 362 362 361 360 361 361 361 359 360 359 360 358 359 360 359 356 357 358 357
350 353 353 356 359 361 362 365 365 364 365 364 365 365 365 365 365 365 365 365 365 365 365 364 364 364 364 365 364 365 364 364 363 363 362 363 362 362 362 362 362 361 362 362 363 362 361 362 361 361 363 362 362 362 363 362 362 361 362 362 363 362 361 362 361 361 361 361 361 361 361 360 361 360 359 358 358 358 360 360 360 359 356 358 358
351 351 353 357 360 360 362 365 364 365 365 365 365 365 365 365 365 365 365 365 365 365 364 364 364 364 364 364 364 364 363 363 362 362 363 363 362 362 362 361 361 362 362 363 362 363 361 363 361 362 363 363 362 362 362 362 361 361 362 361 360 360 361 361 361 360 362 360 360 361 359 358 358 360 359 359 359 358 360 360 360 358 358 358 357
351 351 352 356 358 360 365 364 364 365 365 365 365 365 365 365 365 365 365 365 365 364 364 365 364 365 364 363 363 363 362 362 362 362 363 363 362 360 361 361 361 361 362 360 361 361 361 361 362 362 361 361 362 361 361 360 360 360 361 360 360 360 359 359 359 358 360 362 362 359 357 358 358 359 359 359 360 361 361 360 360 358 359 358 358
351 352 353 356 358 360 365 365 364 364 365 365 365 364 365 365 365 365 365 365 365 365 365 365 365 365 364 364 363 363 363 362 362 363 363 362 362 360 360 360 360 360 360 361 360 361 360 360 361 361 360 359 358 360 361 360 360 359 359 360 359 358 358 357 359 359 363 362 360 356 356 357 356 358 360 359 359 359 360 360 358 358 358 358 358
352 353 355 357 358 362 364 365 364 364 365 365 365 365 365 365 366 366 365 365 365 365 365 365 365 365 364 364 363 363 362 363 363 362 361 361 361 360 361 360 360 360 361 361 360 360 359 360 360 360 359 358 359 359 359 360 359 357 358 358 359 358 357 357 360 361 361 357 355 356 355 356 356 358 360 360 358 360 360 359 359 359 358 358 357
355 356 357 358 359 363 365 365 365 365 365 365 365 365 365 366 366 365 365 365 365 364 365 365 364 364 364 364 363 363 362 361 361 360 360 361 359 360 361 358 361 361 360 361 360 359 360 360 359 357 355 356 359 359 357 358 358 356 356 357 358 357 357 359 359 361 360 354 355 355 357 357 357 357 360 360 359 359 359 358 358 358 358 358 357
355 357 358 358 360 364 365 364 364 365 365 365 365 365 365 365 365 365 364 364 364 364 364 365 365 364 364 363 363 363 361 360 359 360 362 361 360 358 360 360 361 361 360 360 360 359 359 359 358 357 357 358 358 357 358 357 356 355 354 355 355 356 356 359 361 360 356 355 356 356 357 357 356 356 358 358 358 359 358 358 358 358 358 357 357
357 358 358 358 360 365 364 365 365 364 364 365 365 365 365 365 365 364 364 364 364 364 364 364 364 364 363 363 363 363 362 360 360 360 361 361 359 361 361 361 361 362 361 362 360 360 360 360 356 356 357 359 358 356 356 357 354 353 355 355 355 357 359 361 361 360 355 357 357 359 360 357 357 355 357 359 359 359 359 358 357 357 357 357 358
356 357 357 358 360 365 364 364 364 364 365 365 365 365 365 365 364 364 364 364 364 364 364 364 363 364 363 361 362 362 361 361 361 361 361 362 361 361 362 361 360 361 361 360 360 359 359 358 359 358 358 358 358 358 357 356 355 354 354 355 358 358 361 361 358 354 355 356 356 358 358 359 356 357 358 359 359 358 358 357 358 358 357 357 357
357 357 358 360 364 364 364 364 365 365 365 365 365 364 364 364 363 363 363 363 364 363 364 364 364 363 362 362 362 362 361 361 362 361 361 361 362 362 361 360 359 359 359 361 361 361 361 359 360 360 359 359 359 357 357 357 357 356 357 359 360 361 362 361 354 353 354 356 357 356 355 356 358 356 359 358 358 358 358 358 357 357 357 357 357
356 357 359 360 360 364 363 363 364 365 365 364 364 365 364 363 362 362 363 363 363 363 363 363 363 362 363 363 363 362 361 361 361 362 361 359 362 360 360 360 359 358 362 361 360 361 359 360 358 359 360 360 359 358 357 357 357 357 358 361 361 361 362 360 354 354 355 355 355 356 356 358 357 359 358 359 358 358 357 357 357 358 358 358 357
356 357 359 359 359 364 364 363 362 364 364 364 364 364 363 363 362 362 363 363 363 363 363 362 362 362 362 363 362 361 361 361 361 362 361 361 360 360 360 360 360 361 362 359 360 361 360 359 359 359 360 360 360 360 359 359 358 358 360 361 361 361 361 360 358 355 356 356 358 356 358 360 359 358 358 358 358 358 358 358 358 358 358 357 357
355 357 359 359 359 360 364 364 363 364 364 364 364 364 363 362 362 362 363 363 363 363 363 361 361 361 362 362 361 362 361 360 360 361 360 361 361 361 361 360 360 361 361 358 359 361 361 359 359 359 359 360 361 361 360 359 358 358 359 360 362 361 360 355 354 355 355 356 357 356 357 359 358 359 358 357 357 358 358 358 358 358 358 357 357
357 358 360 358 357 359 360 362 363 364 363 364 364 363 362 363 362 361 362 363 364 363 362 361 361 361 361 362 362 361 361 360 361 361 360 360 360 360 359 361 360 361 361 360 360 360 360 360 360 359 359 360 361 360 360 359 359 359 358 359 361 361 360 356 353 353 354 355 357 358 357 357 358 358 358 358 357 357 357 357 357 357 357 357 357
358 359 358 358 357 357 357 357 359 362 363 364 364 363 362 362 362 362 362 363 363 362 362 362 361 362 361 362 361 361 361 360 360 362 361 360 360 359 359 360 360 361 361 360 361 361 359 360 360 360 360 358 359 359 359 360 360 360 359 361 361 361 360 357 353 353 356 358 357 357 358 359 359 357 357 357 356 357 357 357 357 357 357 357 357
358 358 357 358 358 359 359 359 358 359 360 363 363 363 363 363 363 363 363 363 362 362 362 362 361 362 361 362 361 362 361 361 360 361 361 360 359 358 358 361 362 361 361 360 361 359 360 361 360 360 360 360 359 360 360 359 358 358 358 360 362 361 360 358 353 356 357 357 357 359 359 358 359 356 357 356 357 357 357 357 357 356 356 356 356
356 357 358 358 358 359 359 358 359 357 357 357 359 362 363 363 362 363 363 363 363 362 362 362 363 362 361 361 361 361 362 361 361 360 360 359 358 360 361 362 362 361 361 361 361 360 360 360 360 360 359 359 360 359 358 359 359 359 359 361 362 361 360 356 354 354 355 355 356 356 358 360 359 357 357 357 357 357 357 357 357 356 356 357 357
355 357 357 357 358 357 357 357 357 357 357 358 358 360 362 362 363 363 363 363 362 362 362 361 361 360 360 360 361 363 359 359 360 359 360 362 360 360 361 361 361 361 362 361 361 359 359 359 359 359 358 359 361 361 360 360 359 359 360 361 361 359 352 352 352 352 355 357 357 357 359 358 358 357 358 357 357 356 357 357 357 357 357 357 357
354 356 356 357 358 356 356 356 357 357 357 358 358 358 362 364 361 363 363 363 362 362 361 361 360 359 359 359 361 360 359 359 360 359 361 363 361 360 361 361 362 362 362 361 360 360 360 359 360 361 360 361 360 360 359 359 359 359 361 362 360 352 352 352 353 354 355 356 356 358 359 357 356 357 357 356 357 357 357 357 357 358 358 357 355
351 353 356 357 357 356 356 356 355 356 357 357 358 359 362 362 358 361 363 362 361 361 362 361 362 360 361 361 362 362 358 358 359 362 364 365 362 360 361 360 362 362 362 363 360 361 361 360 360 360 360 360 363 358 360 358 358 360 362 360 352 351 352 352 353 354 354 355 357 358 357 356 356 356 357 356 355 357 357 357 357 357 356 357 355
349 351 354 356 357 356 357 356 355 356 357 357 357 359 358 357 357 359 361 362 361 362 359 360 356 358 360 360 359 358 359 360 362 363 364 362 363 361 360 360 362 362 362 362 361 360 362 362 360 359 360 363 358 357 356 355 358 362 359 352 351 351 351 352 352 352 353 355 354 358 356 355 356 356 355 356 356 356 356 357 357 357 357 355 355
347 350 352 356 357 357 357 355 354 355 355 355 357 356 356 356 357 357 358 358 359 359 357 357 357 357 357 358 358 359 357 359 360 362 364 357 361 363 362 361 360 360 364 363 363 362 361 360 361 362 361 360 357 357 355 353 351 350 351 352 351 351 351 352 352 352 353 356 355 357 357 357 357 357 358 357 357 357 358 357 356 356 357 356 357
348 350 352 354 356 356 356 355 355 355 355 357 356 355 356 356 356 357 357 356 356 356 356 356 357 356 356 357 358 358 356 356 356 356 355 357 357 357 358 358 359 360 363 357 358 360 360 358 359 360 358 360 358 356 356 353 352 350 351 352 352 351 351 352 351 352 354 355 357 358 357 357 357 356 357 357 358 358 358 357 357 357 356 356 357
350 349 351 353 354 356 356 354 355 355 355 355 355 357 357 355 355 356 356 355 355 355 355 356 356 356 357 358 358 355 355 355 355 355 355 356 356 356 356 357 357 357 360 356 356 357 358 358 358 358 358 359 357 357 360 356 351 351 352 352 353 351 351 351 352 353 353 355 359 358 358 358 357 357 357 358 357 357 357 357 357 357 357 357 357
348 348 352 353 354 355 355 354 354 354 354 355 357 357 355 356 356 356 354 354 355 354 355 356 356 355 357 359 355 354 353 354 354 353 353 354 355 354 355 355 355 355 358 356 356 356 357 358 357 358 358 359 357 356 357 354 353 351 351 352 352 351 352 351 352 352 353 355 358 359 358 357 357 357 357 357 357 358 358 357 357 357 357 357 356
347 348 351 352 354 354 355 355 354 354 354 355 356 355 355 355 357 360 356 357 355 354 355 355 357 356 359 361 358 354 353 353 353 353 353 354 354 354 353 354 355 355 357 358 357 356 357 357 357 357 358 358 357 356 356 354 353 352 351 353 352 352 352 352 352 352 353 354 357 358 358 357 357 357 357 358 358 357 357 357 357 358 357 357 356
346 348 350 351 353 354 355 354 354 354 354 356 355 355 355 356 358 356 354 360 354 354 355 356 356 359 360 360 359 353 353 353 353 353 353 353 353 354 355 354 355 356 358 358 359 357 356 356 357 357 356 357 356 356 355 353 352 351 350 352 352 352 352 353 353 352 353 354 356 359 358 357 357 357 357 357 357 357 357 357 356 356 357 356 355
346 348 349 350 352 354 354 353 354 354 354 356 354 354 354 355 356 355 356 358 354 355 356 355 355 356 357 359 358 354 353 354 354 353 353 353 353 354 356 354 354 355 357 357 357 357 356 356 355 353 352 353 355 355 357 352 351 351 349 351 352 352 353 353 353 353 354 355 356 357 359 358 358 358 357 357 357 357 357 356 357 356 356 356 355
347 347 348 350 353 353 353 354 354 356 354 355 354 354 355 354 356 355 356 355 355 357 356 355 354 355 356 358 357 358 354 355 354 353 354 353 354 354 354 354 354 355 355 355 355 357 356 356 355 353 352 354 355 354 356 352 351 350 350 349 351 353 353 353 353 353 353 355 356 357 358 359 358 358 358 358 357 357 356 357 356 356 356 356 355
346 346 348 350 352 352 353 354 354 356 355 354 356 354 354 354 356 355 355 355 356 355 354 354 357 354 356 356 357 358 360 356 355 354 354 354 354 353 353 353 353 353 354 354 354 355 358 358 358 358 359 358 357 352 355 352 349 349 350 349 350 352 353 353 353 353 354 355 356 356 357 358 360 359 358 358 358 357 357 357 356 357 356 356 356
347 348 348 350 351 352 352 353 354 355 353 354 354 354 354 355 355 355 356 356 356 355 353 353 353 354 355 357 357 358 362 356 356 356 360 354 354 354 353 355 354 353 354 356 357 359 359 357 357 360 358 354 353 351 353 351 349 348 348 349 350 351 353 353 353 353 353 354 356 356 357 359 361 361 359 359 359 358 358 358 357 357 357 357 356
346 348 349 349 352 353 354 354 354 354 353 354 354 353 354 354 356 355 358 356 355 354 355 352 354 354 356 357 357 359 360 357 356 356 357 354 354 355 354 353 354 355 358 361 359 357 357 357 360 354 360 356 353 352 350 348 348 347 348 348 349 351 353 352 353 353 353 354 356 356 357 358 359 360 361 361 360 359 359 359 359 358 358 357 358
348 347 348 349 352 352 354 353 355 353 355 353 354 353 353 354 354 354 356 355 354 353 353 352 352 353 357 357 357 358 360 357 357 356 356 355 354 354 354 355 356 360 360 359 356 355 356 356 359 352 354 355 353 356 350 348 347 347 347 349 348 349 353 352 353 353 353 354 355 355 357 357 358 359 360 360 361 361 361 360 360 359 359 359 359
347 347 349 350 351 352 354 352 354 352 353 352 353 352 353 352 353 356 355 354 354 353 352 352 352 354 357 356 356 358 360 358 357 356 355 354 354 354 355 357 360 360 358 359 359 356 357 357 360 353 352 353 354 349 351 347 346 346 347 349 349 351 351 352 352 352 352 354 354 355 356 357 357 358 360 360 360 360 360 361 360 361 360 360 360
348 348 348 349 350 351 353 352 352 352 352 352 352 351 351 351 351 354 353 354 353 352 352 352 354 355 357 356 355 357 359 358 358 357 355 355 355 355 357 358 361 358 358 356 356 358 355 358 357 359 353 353 349 348 346 347 346 346 346 346 347 350 350 352 352 352 352 352 353 353 354 355 357 360 359 359 360 360 359 359 360 361 361 361 361
349 349 350 350 350 351 352 352 352 352 352 351 351 350 350 350 351 352 356 352 352 352 351 353 354 356 356 355 355 357 361 359 358 357 355 356 356 356 358 359 360 358 357 356 354 353 353 355 355 357 356 353 351 349 348 344 344 345 346 345 347 347 349 352 353 356 353 352 352 352 353 354 355 356 357 358 358 358 359 359 359 361 361 361 361
349 349 350 351 351 351 352 352 352 352 351 351 351 350 349 349 349 350 351 351 352 351 352 353 355 357 356 356 356 357 363 360 359 358 355 359 358 358 358 359 360 358 357 356 356 361 359 355 356 355 355 354 355 354 352 348 345 344 344 345 345 347 349 350 354 354 354 352 352 353 352 353 354 355 356 357 357 358 358 358 357 358 358 358 360
348 349 350 350 350 350 351 351 352 351 351 349 349 347 347 347 345 347 348 350 349 352 353 354 356 357 358 357 357 357 361 361 359 358 356 359 357 357 358 359 359 358 356 354 354 356 357 356 355 357 351 355 355 356 354 350 346 345 347 347 345 346 347 349 351 351 354 353 353 355 354 354 353 354 354 356 356 356 357 357 357 356 356 356 358
347 348 349 349 349 349 350 349 351 351 350 347 346 345 344 343 344 345 345 347 348 350 353 354 357 357 359 358 358 358 360 361 361 358 356 361 357 358 358 358 359 358 356 354 354 353 353 355 356 358 356 351 351 351 348 344 344 342 343 343 344 347 349 351 347 348 350 353 354 354 355 355 354 354 355 356 356 356 356 356 356 356 355 356 356
345 347 348 349 349 349 349 349 350 350 349 348 347 346 345 345 344 344 345 347 349 351 351 354 356 358 359 359 360 359 360 360 362 359 358 359 357 358 358 358 358 357 356 357 355 361 359 353 351 351 354 353 351 353 353 342 340 339 337 338 344 341 348 355 348 347 348 350 353 353 354 353 353 354 355 356 356 356 357 357 357 356 356 356 356
345 346 348 349 348 348 349 349 350 350 349 349 347 346 346 347 346 345 346 346 351 353 352 355 358 358 359 360 361 360 359 360 362 361 358 358 357 357 358 358 357 358 358 355 356 359 353 352 350 351 352 353 356 357 349 344 341 342 341 340 334 333 343 342 343 345 346 347 349 350 352 352 353 355 356 356 356 357 357 357 357 356 356 355 355
344 345 347 348 348 348 348 349 349 349 349 349 350 347 347 347 348 346 347 349 349 354 355 356 357 357 357 359 361 360 359 360 361 361 360 359 357 357 357 358 357 358 357 354 353 356 354 352 351 357 351 349 347 350 356 349 345 343 336 333 332 332 330 335 333 339 341 343 344 346 349 351 353 354 355 355 354 356 357 358 357 357 356 356 355
343 344 346 347 348 347 348 348 348 349 349 351 350 347 349 345 345 345 348 349 350 350 350 351 355 357 357 358 359 360 360 360 361 362 362 359 358 357 357 358 358 358 357 355 355 356 355 353 352 356 354 349 347 349 353 355 346 349 341 335 332 332 331 333 332 339 339 341 339 340 345 349 350 352 353 353 354 356 355 356 358 358 357 357 356
342 344 346 347 348 347 348 348 348 348 348 349 349 346 347 342 340 340 340 342 342 344 345 347 350 354 356 358 359 360 360 360 361 362 363 360 358 356 356 358 358 359 358 357 356 356 355 355 354 355 355 352 351 349 348 354 356 356 342 345 343 335 336 336 333 334 338 345 344 345 342 345 348 349 352 350 350 352 355 355 357 357 357 357 357
342 344 346 347 347 347 347 347 347 347 348 348 348 347 345 343 341 340 340 341 341 343 348 350 352 355 358 357 358 360 361 360 361 362 362 362 359 357 356 358 359 359 361 358 357 357 356 356 356 355 355 358 351 348 347 348 349 353 353 350 350 348 343 341 337 332 333 338 340 341 340 340 342 344 344 345 346 347 350 353 354 355 356 357 357
343 344 345 346 346 347 347 347 347 348 348 348 347 347 344 343 341 340 341 340 341 342 346 349 353 356 356 357 358 359 361 361 361 362 362 362 360 357 358 357 358 359 361 358 358 358 358 358 359 356 356 359 351 350 347 346 346 347 355 354 350 351 344 341 338 337 333 330 334 337 339 340 340 340 342 341 342 344 346 350 351 352 353 354 355
342 343 344 345 346 347 348 347 347 348 347 348 347 346 346 344 343 340 340 342 342 344 348 352 352 356 355 356 357 358 360 361 362 362 362 362 363 359 358 358 358 358 363 361 359 358 358 357 357 357 356 356 354 350 349 348 345 346 348 346 346 345 343 342 342 343 339 333 333 332 337 340 340 342 341 341 342 343 345 346 348 349 352 354 353
342 344 344 344 345 346 347 347 346 347 347 347 347 345 346 346 343 341 339 339 344 345 348 349 351 354 353 354 356 357 358 359 361 362 361 361 363 362 359 358 359 358 362 362 360 359 358 357 357 357 356 356 356 356 352 348 348 349 349 349 346 345 342 339 337 337 336 334 332 334 335 335 336 342 341 341 343 343 345 346 347 347 350 352 353
341 342 343 343 344 345 346 346 346 347 347 346 347 345 345 345 343 342 340 339 341 343 345 347 350 351 351 352 355 356 357 358 360 361 361 360 361 363 361 359 360 362 363 362 361 360 359 358 357 357 358 357 356 357 358 356 351 352 351 351 349 344 342 337 339 340 337 336 336 334 336 340 336 337 346 341 350 345 346 347 345 345 349 350 352
Wind_Speed
4 3 2 4 8 11 12 14 15 16 17 16 16 16 15 15 15 15 15 15 14 14 14 13 13 13 13 12 12 12 11 11 11 10 10 10 10 10 10 10 10 9 9 9 9 8 9 10 8 10 10 10 11 11 12 12 12 12 12 12 11 11 11 11 12 13 13 13 13 12 12 14 14 14 14 14 15 16 16 14 12 7 7 12 15
7 4 2 2 8 10 13 13 14 15 16 16 15 15 15 15 15 15 15 14 14 14 14 14 14 13 13 13 12 12 12 11 10 10 10 10 10 10 10 10 10 9 9 9 9 9 10 11 8 9 10 11 11 12 12 12 11 11 12 12 11 11 11 11 12 12 13 12 13 13 14 14 14 14 14 14 13 15 14 14 12 6 7 14 15
4 3 1 2 5 9 11 14 14 15 15 15 15 15 15 15 15 15 14 14 14 14 14 14 14 13 13 13 12 11 11 11 11 11 10 10 10 10 10 9 9 9 9 9 9 9 9 11 10 11 11 11 13 13 13 12 11 12 11 11 11 12 11 12 12 13 15 15 14 16 15 14 14 15 14 14 15 15 15 14 12 9 9 15 14
6 2 1 4 6 3 12 14 14 14 15 15 15 14 14 14 14 14 14 14 14 14 14 13 13 13 13 12 12 11 11 11 11 11 11 11 10 10 9 9 9 9 9 10 10 9 9 9 9 11 12 13 13 13 13 12 11 11 11 11 11 13 13 12 13 14 15 15 15 12 7 8 11 15 15 16 16 16 15 14 13 13 15 14 14
6 3 2 2 2 5 11 14 14 14 14 14 14 14 14 14 14 14 14 13 13 13 13 13 13 12 12 12 11 11 11 11 11 10 10 10 10 10 9 8 9 8 9 8 7 10 9 9 9 10 11 13 14 12 13 12 12 11 10 11 12 12 12 11 13 12 15 16 15 9 7 8 7 14 15 16 15 14 14 13 13 14 14 15 14
6 4 2 2 2 5 11 13 14 14 14 14 14 13 13 12 12 12 12 12 12 12 12 12 12 11 11 12 11 11 11 10 10 10 10 9 10 11 9 10 10 10 9 9 7 8 8 9 7 8 10 13 14 12 12 12 12 11 11 11 12 13 13 12 11 14 16 15 12 5 6 6 8 8 16 16 15 14 14 14 14 14 13 14 13
7 4 3 3 2 6 10 12 13 14 14 14 13 12 12 12 12 12 11 11 11 11 11 11 11 11 11 11 11 10 10 10 10 11 9 9 10 12 11 11 11 10 9 8 10 9 7 7 6 8 10 9 13 12 12 11 12 11 11 11 13 13 13 11 13 15 13 8 5 5 5 8 7 7 16 16 16 15 15 14 14 14 13 13 12
6 4 4 4 3 8 11 11 13 13 13 13 13 12 11 11 11 11 10 10 10 10 11 10 10 11 11 10 10 10 9 10 10 10 11 10 11 10 11 11 11 9 9 9 9 8 9 8 7 9 10 10 11 12 11 11 12 11 10 11 12 12 12 12 15 14 13 6 5 5 4 4 6 7 15 16 16 15 14 14 13 13 13 13 12
6 5 4 4 5 12 11 12 13 13 13 12 11 11 11 11 10 10 9 9 10 10 10 10 10 10 10 10 10 10 10 10 9 10 11 11 12 9 10 10 11 10 9 9 9 8 8 6 9 10 10 12 11 10 11 12 11 11 10 10 11 10 12 14 14 13 7 5 6 5 6 5 5 7 13 15 15 15 14 13 12 13 13 12 11
5 3 3 3 5 11 13 13 13 13 13 12 11 10 10 10 9 9 9 9 9 10 10 9 9 10 10 10 10 9 10 10 11 10 9 11 11 11 9 10 10 10 8 8 8 6 7 6 11 11 10 11 12 11 10 12 11 11 13 14 14 13 15 15 14 10 6 6 6 7 6 7 5 7 12 14 14 14 13 12 9 10 10 12 11
5 3 3 3 5 11 13 14 14 13 13 12 11 10 10 10 9 8 8 9 9 9 9 9 9 9 10 10 10 9 9 10 10 10 9 10 12 11 10 10 9 8 8 6 8 9 10 10 12 14 11 11 12 11 11 12 14 12 13 14 14 15 16 15 11 5 5 6 6 5 7 9 5 5 13 14 14 13 13 12 12 12 12 12 11
7 3 3 3 9 11 12 13 13 13 12 12 11 11 10 9 9 8 8 8 8 8 8 8 8 9 10 10 9 9 9 10 10 9 9 10 13 12 10 10 8 7 7 9 10 9 10 10 11 12 12 11 13 12 12 10 11 12 12 13 15 16 15 14 7 5 6 6 6 5 5 5 5 9 13 13 13 13 13 13 12 12 11 11 10
7 4 3 4 5 11 10 13 13 13 12 12 11 10 10 9 8 8 8 7 8 8 8 7 8 8 9 9 9 8 8 9 9 9 8 10 12 11 10 10 9 5 7 10 10 10 10 10 9 10 10 11 10 12 12 10 11 12 12 14 15 15 14 13 6 6 6 6 5 6 5 5 6 11 13 13 12 12 12 12 11 11 10 10 10
7 5 4 5 3 11 12 10 12 12 12 12 11 10 10 9 8 8 8 7 7 7 7 7 7 8 9 9 8 8 8 9 8 8 8 10 10 10 10 10 7 7 8 11 11 9 11 10 9 10 10 10 10 11 11 12 10 12 12 14 15 15 14 10 8 6 6 6 5 6 6 4 6 10 12 12 12 12 12 11 11 10 10 10 9
7 6 6 5 4 5 12 12 12 13 12 12 11 10 10 9 9 9 8 7 6 7 7 7 7 8 8 8 9 8 9 8 7 7 8 9 10 8 9 9 9 7 9 10 11 10 9 10 10 9 10 10 10 11 12 12 12 12 13 13 14 13 13 6 5 5 5 5 5 5 5 4 9 9 11 11 11 11 11 10 10 10 10 9 9
6 7 7 6 5 4 4 9 10 11 11 11 10 10 10 9 9 8 8 7 7 7 7 7 7 8 8 7 9 8 10 8 7 8 7 9 8 8 7 8 8 8 9 10 11 10 10 10 10 11 10 10 10 11 12 12 12 13 12 12 14 13 12 8 5 5 5 5 4 4 3 5 9 10 11 11 11 10 10 9 9 9 9 9 8
7 6 7 7 7 4 5 5 6 13 11 10 10 9 9 9 8 9 8 8 8 7 7 7 7 7 8 8 9 9 10 8 8 7 7 8 8 8 7 8 9 9 9 10 11 10 11 8 10 11 11 10 10 11 11 12 12 12 12 13 13 12 12 9 5 4 4 5 4 3 3 3 7 9 10 10 10 10 9 8 8 8 9 8 8
7 7 7 7 6 6 6 6 7 5 4 7 9 9 9 9 9 8 8 8 7 7 7 7 7 7 7 8 8 10 8 8 8 7 6 7 10 8 7 8 9 9 9 12 11 11 9 10 9 10 10 10 10 10 10 11 10 10 12 12 13 12 12 10 5 4 5 5 4 3 2 7 7 8 9 9 9 8 8 7 7 8 8 7 7
6 7 7 8 8 7 5 4 3 3 3 3 3 6 9 9 9 9 8 8 7 7 7 6 7 7 7 7 7 11 9 8 8 8 6 7 10 9 8 9 9 9 9 13 10 12 10 9 10 9 11 10 8 9 10 10 10 10 11 11 12 12 12 6 4 4 5 3 3 3 3 5 6 8 8 8 8 8 7 7 7 7 7 6 6
5 6 7 6 6 5 4 4 4 3 3 4 3 3 7 9 8 8 8 7 7 7 7 6 5 7 6 6 7 3 9 7 8 7 7 10 9 7 9 9 9 9 10 12 11 10 10 10 9 10 11 10 9 9 10 9 8 10 11 11 11 11 6 4 5 4 3 4 3 2 3 4 6 6 7 7 7 6 7 7 7 6 6 6 6
5 7 6 5 6 5 4 4 4 4 4 4 3 2 3 8 6 7 7 7 6 7 5 6 7 7 5 7 5 4 6 5 4 4 6 5 8 9 8 9 9 9 10 10 11 10 10 11 9 11 11 11 9 9 11 8 7 8 11 12 11 5 4 4 4 4 3 3 3 3 4 3 4 4 6 6 7 6 6 6 6 6 6 5 6
7 6 6 5 5 4 4 4 4 4 4 4 3 3 2 4 4 2 2 4 5 6 4 4 5 5 6 5 4 4 5 6 3 4 3 5 6 9 8 9 9 10 8 10 10 10 11 10 10 10 9 9 9 5 6 8 8 10 11 11 6 5 4 4 4 4 3 2 2 2 2 5 5 3 4 5 5 6 5 6 5 5 5 5 5
8 6 5 6 4 4 4 5 4 4 5 3 3 3 3 3 3 3 3 5 5 4 4 4 5 5 4 4 4 4 5 4 3 4 4 7 6 9 10 9 9 9 8 10 9 10 10 9 9 8 8 9 5 5 5 4 5 11 10 6 4 4 4 4 3 2 2 2 2 1 2 4 4 3 4 5 5 5 5 5 4 4 4 4 5
6 6 6 5 5 5 5 4 4 4 4 4 3 3 3 3 3 4 4 4 4 4 4 5 5 5 4 4 4 5 4 4 6 7 6 5 5 8 10 10 10 9 10 7 8 9 9 9 10 8 5 4 4 4 4 3 4 3 4 4 4 4 3 3 2 2 2 2 1 2 2 2 2 2 2 3 3 3 4 3 3 3 3 4 5
6 5 5 6 7 7 5 4 4 4 4 4 4 3 3 4 4 4 4 4 4 4 4 4 4 5 5 4 4 4 4 4 4 4 4 4 5 5 5 5 5 5 6 5 4 4 4 4 3 4 3 3 4 3 3 3 3 3 3 3 4 4 4 3 2 2 1 1 1 0 0 1 1 1 2 3 3 2 2 2 2 2 2 3 4
6 6 7 7 8 7 6 4 5 4 4 4 4 5 4 4 4 4 4 4 4 4 4 4 4 4 4 4 4 5 4 4 4 4 4 4 4 4 4 4 5 4 3 3 3 3 3 3 3 3 2 2 3 2 2 3 3 3 3 3 3 3 3 3 2 2 2 1 1 1 1 1 2 2 2 2 2 1 1 1 1 1 2 2 3
6 6 6 6 7 8 6 5 5 4 4 4 4 4 4 4 4 4 4 4 4 4 4 4 4 4 4 4 5 4 4 4 4 4 4 3 4 4 4 3 3 3 3 3 3 3 2 3 2 2 2 3 2 2 2 2 3 3 3 3 2 3 2 2 2 2 2 1 1 3 2 2 2 2 2 2 1 1 0 0 0 0 1 2 2
6 6 7 7 7 9 7 6 5 5 4 4 4 4 4 4 4 4 4 4 4 4 4 4 4 4 4 4 4 4 4 4 4 4 3 3 3 3 3 3 3 2 2 2 3 2 2 2 2 2 2 1 1 1 2 2 2 3 3 2 2 2 2 2 2 2 2 2 1 3 3 4 4 3 3 3 2 1 1 1 1 1 2 1 0
8 7 6 7 7 8 8 7 5 5 4 4 5 4 4 4 4 4 4 5 4 3 4 4 4 3 4 4 4 4 4 4 4 3 3 3 3 3 2 2 2 2 2 2 1 2 2 1 2 2 1 1 1 1 2 2 2 2 3 3 3 3 3 2 2 2 2 1 1 3 5 5 5 4 3 2 2 1 2 1 1 1 1 1 0
8 8 7 6 7 7 8 8 6 5 4 5 4 4 4 4 4 4 4 4 4 3 4 3 3 4 4 4 3 4 4 4 4 3 3 2 2 2 2 2 2 2 2 2 1 0 1 0 1 2 2 2 1 1 2 2 2 2 2 2 2 2 2 2 2 2 1 1 1 2 5 5 5 4 3 2 2 2 2 2 1 1 2 1 1
8 8 7 7 7 8 8 7 6 7 5 5 4 4 4 4 4 4 4 4 4 4 3 3 3 3 3 4 4 4 4 3 4 3 3 2 1 1 1 2 2 1 1 2 1 1 0 1 2 2 2 2 2 2 2 2 2 2 2 2 2 2 2 2 2 1 2 1 1 2 4 6 5 4 4 3 3 3 3 2 2 2 2 3 3
9 9 7 6 8 8 8 7 7 6 6 6 5 5 5 5 4 4 4 4 4 4 3 3 3 3 3 3 4 4 4 3 4 3 3 3 2 1 1 1 2 2 1 2 2 1 1 1 2 2 2 2 1 1 2 2 2 2 2 2 1 2 2 2 2 2 2 2 2 2 2 4 6 5 5 4 4 4 3 3 3 3 3 4 4
6 8 8 8 9 9 8 8 7 6 6 6 5 5 4 4 4 4 4 4 4 4 3 3 3 3 3 3 3 4 3 4 3 3 3 2 2 1 2 2 2 2 2 2 2 2 1 2 2 1 1 1 1 1 2 1 2 2 2 2 1 2 1 2 2 2 3 3 2 2 2 3 3 6 6 5 5 5 5 5 5 5 4 5 5
8 7 9 9 8 7 6 6 7 7 7 6 5 5 5 4 4 4 4 4 4 4 3 3 3 3 3 3 3 4 4 3 4 3 2 2 1 1 2 2 2 2 2 1 1 2 2 2 3 3 3 2 1 2 2 2 1 1 2 2 2 2 1 2 2 2 2 3 2 2 2 2 2 2 3 5 6 7 7 6 6 6 6 6 6
8 8 10 10 9 8 7 6 8 7 8 6 6 5 4 4 5 4 4 4 3 3 3 3 3 3 3 2 3 3 4 4 4 4 3 2 2 2 2 3 2 1 0 1 2 2 2 2 2 3 3 2 2 1 3 3 3 3 3 2 3 2 2 2 2 3 3 3 2 3 3 3 3 2 2 2 4 6 7 8 8 7 7 7 7
11 10 9 9 9 9 9 8 9 9 8 7 6 5 5 4 4 4 4 4 4 4 3 3 3 3 3 3 2 3 4 4 4 4 3 2 2 2 3 2 2 1 1 2 3 3 2 2 3 1 1 3 3 2 1 3 2 3 2 2 2 2 2 2 3 3 3 2 3 3 3 4 4 3 4 3 2 3 7 9 9 9 8 8 8
10 11 10 10 9 9 10 9 10 10 8 7 6 5 4 5 5 5 5 4 4 4 3 3 3 3 3 3 3 2 3 4 4 4 4 3 2 2 3 2 1 2 1 2 2 2 2 3 2 2 0 1 0 1 1 2 3 2 2 3 3 3 3 3 4 3 2 4 4 4 4 5 6 7 6 6 5 3 5 8 9 9 9 9 9
10 11 11 11 10 9 9 8 8 9 8 7 6 6 5 4 4 4 4 5 5 4 3 3 3 3 3 4 3 3 3 3 4 4 4 3 3 3 2 2 2 2 2 2 1 1 2 2 1 2 1 1 1 2 1 2 2 3 2 3 3 3 3 3 3 3 3 4 4 4 4 3 4 4 5 6 6 5 5 6 9 10 11 10 9
9 11 10 9 8 8 8 8 9 9 8 7 5 5 4 4 3 4 4 5 4 4 4 4 4 3 4 4 4 3 3 3 4 4 4 3 3 2 2 2 2 2 2 1 1 1 2 2 2 1 1 1 0 1 1 2 2 2 2 3 2 3 3 3 2 3 3 4 4 4 3 4 4 4 4 5 5 6 6 5 5 6 6 9 9
10 10 11 10 9 8 7 7 7 8 7 6 5 5 4 5 5 3 3 4 4 4 4 4 4 4 3 4 4 4 3 3 3 3 3 3 2 3 3 2 2 2 2 2 1 1 1 2 2 2 2 1 2 1 1 3 2 1 2 3 2 3 4 3 4 4 3 4 4 3 4 3 4 4 5 4 4 5 6 5 5 5 5 7 8
10 11 11 11 11 11 10 10 8 8 7 7 6 6 5 5 3 5 6 5 5 4 4 4 4 4 4 4 4 4 4 4 3 4 4 3 3 2 2 2 2 2 2 3 1 1 1 2 1 1 2 1 2 2 1 2 4 2 3 2 4 3 4 4 5 4 5 4 4 4 3 4 4 4 4 3 4 4 5 5 5 5 5 5 5
9 11 12 12 12 11 11 10 7 8 8 8 7 7 6 6 6 6 5 4 5 5 4 4 5 4 5 5 4 4 4 4 4 4 4 4 3 3 2 3 2 2 2 1 0 1 2 1 1 0 1 2 1 1 0 2 2 2 2 1 3 4 3 2 2 4 5 5 4 4 4 5 5 5 3 3 4 4 4 3 3 3 3 3 3
13 13 12 11 11 11 10 9 8 9 8 8 7 7 5 5 5 4 6 4 3 5 5 5 5 5 4 4 4 4 5 4 4 4 4 4 4 4 3 2 2 2 2 1 1 2 1 1 2 1 1 1 1 1 1 2 3 1 2 2 2 4 4 3 1 3 4 4 3 4 4 5 6 4 3 3 3 4 4 3 4 4 4 3 3
11 11 11 12 10 10 10 10 9 9 8 8 8 5 4 4 3 5 4 4 4 3 3 2 3 4 4 4 4 4 5 4 4 4 4 4 4 4 3 3 3 3 3 3 2 3 1 1 1 2 1 0 2 1 2 1 3 4 1 1 1 1 4 3 4 5 1 2 3 4 4 5 5 4 3 4 3 3 3 3 4 4 4 3 3
12 12 12 12 10 12 11 12 10 10 9 9 8 6 5 5 4 3 3 3 4 3 4 3 4 4 3 4 5 5 5 5 4 5 4 5 4 4 4 4 3 3 3 3 3 3 2 2 2 1 1 1 1 2 2 2 3 1 5 2 1 1 2 3 4 5 2 1 2 3 4 4 4 3 3 4 3 3 3 4 4 4 4 4 4
13 12 12 13 12 10 10 10 9 9 9 9 9 8 7 7 7 7 6 5 5 5 6 7 5 5 5 3 4 5 5 4 4 5 4 4 5 4 4 4 3 3 3 3 2 2 2 2 2 2 2 1 1 2 2 2 2 2 3 2 2 2 2 2 2 4 5 1 3 2 3 4 4 4 3 4 4 3 2 4 3 4 4 4 4
13 12 11 12 12 11 11 11 10 10 9 9 9 8 7 7 9 9 8 9 8 6 6 5 6 6 4 5 5 4 5 5 5 5 5 4 4 4 4 4 3 3 3 3 3 3 2 2 2 2 2 2 2 1 1 3 3 2 1 1 1 1 3 1 2 0 5 5 3 2 3 2 3 3 4 4 4 4 3 3 4 4 4 3 4
13 11 11 11 13 12 12 12 10 10 10 9 9 9 9 8 8 7 7 7 7 7 7 6 5 5 5 5 4 4 5 5 5 5 5 4 4 4 4 4 3 3 3 4 4 2 2 1 2 2 2 2 3 2 2 1 2 1 2 1 1 2 1 1 3 1 1 3 7 4 2 3 2 3 4 5 5 5 5 4 4 4 3 4 4
13 13 12 12 12 11 12 11 11 10 10 11 11 10 9 9 9 7 7 6 5 5 5 4 5 5 6 4 5 5 4 5 5 5 5 5 5 5 5 4 4 4 4 3 3 3 4 3 2 2 2 2 2 2 1 3 2 4 1 1 2 2 2 2 1 2 2 1 5 2 5 4 2 3 4 4 4 4 4 4 4 4 4 4 4
13 12 12 11 11 10 11 12 12 10 10 12 12 11 10 9 8 8 9 6 4 4 5 6 6 5 6 6 5 5 5 5 5 5 5 5 5 5 5 5 5 4 4 4 3 3 3 3 3 2 1 2 2 3 3 3 3 1 0 1 1 2 2 1 1 2 2 1 2 4 3 4 5 5 3 3 4 4 4 3 4 4 4 4 4
12 13 12 12 12 12 13 14 13 10 10 12 12 13 11 9 9 9 9 8 7 6 6 5 5 6 6 6 6 5 5 5 5 5 5 5 5 5 5 5 4 4 4 4 4 4 3 3 2 2 3 3 2 2 2 3 2 1 1 1 2 2 2 2 2 1 0 1 3 3 3 1 3 5 4 4 4 4 3 3 4 4 4 4 4
Wind_Direction
230 223 245 206 146 142 136 130 127 125 122 120 118 118 116 114 112 110 111 112 114 114 116 117 117 117 115 116 116 116 115 115 116 116 115 117 116 117 115 114 115 113 111 111 109 109 111 100 96 108 111 114 116 116 115 111 109 107 105 104 102 103 105 105 101 102 103 101 104 106 104 94 99 95 95 101 101 99 104 96 86 77 87 91 92
182 213 214 240 156 136 135 127 120 119 119 118 118 117 115 115 114 114 114 116 117 119 119 120 119 117 115 115 117 119 121 120 118 118 119 120 119 118 116 118 119 119 118 117 120 119 106 101 114 114 116 117 117 114 111 109 109 111 108 105 103 102 102 102 103 103 103 102 94 86 88 98 94 100 101 97 98 98 94 96 94 91 94 93 91
144 156 220 194 149 141 144 127 124 122 120 119 118 117 116 116 116 116 116 117 119 119 119 118 117 116 117 117 118 120 121 122 122 119 118 118 119 118 120 119 121 121 120 120 116 106 112 126 127 120 116 119 116 109 102 98 92 92 94 104 106 100 94 95 99 100 92 87 88 94 94 96 100 101 106 109 104 103 101 99 97 92 94 92 91
145 149 166 176 170 177 155 130 126 124 122 121 120 118 118 116 117 117 117 117 117 117 116 114 112 113 114 115 117 118 118 116 116 120 121 121 121 122 121 123 120 120 122 123 118 126 125 118 119 115 116 113 110 106 106 111 106 105 101 99 95 89 89 86 87 90 90 93 89 84 86 91 97 100 101 101 101 101 103 97 94 95 95 94 93
135 144 166 167 168 191 146 132 127 123 122 122 122 120 118 116 115 116 115 114 112 110 109 110 111 111 111 112 113 112 111 112 117 115 112 115 120 123 116 119 101 85 76 80 109 119 115 115 116 119 116 112 101 104 110 107 104 96 92 92 91 96 91 83 90 99 95 86 80 75 83 92 93 101 101 99 98 100 98 100 98 98 94 92 90
137 147 166 181 176 194 138 132 129 125 124 124 121 117 114 114 114 114 111 108 108 110 111 109 106 104 104 105 106 107 111 109 108 112 113 121 118 103 104 104 110 112 110 110 107 99 111 107 112 125 117 109 108 109 108 109 106 106 98 91 97 95 91 95 98 88 78 77 73 64 69 76 91 98 103 103 104 104 101 97 100 96 93 92 93
138 149 170 170 186 162 132 132 130 126 124 122 120 119 119 118 116 113 113 113 114 113 111 107 103 100 100 101 104 106 106 110 111 106 107 108 103 110 119 112 108 102 89 86 89 94 82 89 100 98 98 103 112 118 118 117 112 106 106 101 101 100 99 109 95 83 75 69 65 64 71 86 87 93 106 106 108 104 101 103 100 96 93 91 89
131 152 162 171 174 138 132 131 130 128 126 124 124 124 123 122 119 116 115 116 117 115 110 107 104 103 100 97 98 102 104 102 106 109 113 105 105 101 98 107 100 95 95 87 87 87 89 112 117 80 74 96 107 108 106 110 104 101 100 95 92 103 117 110 92 85 74 63 62 66 73 73 88 98 100 101 102 102 104 101 98 97 95 93 92
140 148 155 157 148 139 135 134 133 131 129 128 127 126 123 121 117 117 118 121 122 118 112 107 107 104 101 99 98 98 100 106 113 107 102 106 100 108 99 102 103 103 104 103 104 100 110 114 102 103 119 114 107 109 113 108 110 101 93 101 115 124 112 96 85 74 66 59 62 70 67 59 58 89 100 102 103 103 103 100 99 97 95 96 93
135 129 139 136 141 142 139 137 135 135 134 132 129 125 122 121 121 123 128 127 125 119 112 111 110 104 99 97 96 96 96 100 94 93 97 97 99 98 101 89 92 93 91 96 95 110 109 105 105 119 118 109 113 116 116 112 113 134 139 139 138 128 104 91 82 72 63 59 61 71 76 78 62 90 102 103 104 104 102 99 100 99 99 98 95
125 123 121 128 145 143 142 139 138 138 136 133 131 129 127 126 128 130 130 127 122 119 115 113 108 101 95 93 92 90 90 92 95 100 102 97 101 99 89 91 94 103 98 122 132 111 111 111 107 106 109 116 116 112 118 124 135 138 130 130 117 103 94 85 74 63 59 59 57 49 71 70 72 91 105 105 106 106 104 102 102 101 100 97 96
135 122 119 128 147 143 146 142 140 139 138 136 134 134 133 135 136 134 129 124 121 119 116 111 105 95 87 84 87 85 86 92 92 92 91 92 89 84 84 91 82 82 123 97 83 82 74 75 92 100 120 119 115 118 112 121 116 115 114 110 99 94 88 81 70 65 63 61 59 53 49 57 68 102 103 104 102 104 105 105 103 102 100 101 98
132 123 118 111 129 149 150 147 143 141 141 140 138 137 137 137 135 132 126 121 119 116 112 108 101 96 90 83 82 84 85 87 89 86 83 91 92 94 94 96 103 116 88 85 79 77 75 75 99 112 106 111 114 108 113 110 106 107 108 102 96 93 88 80 67 66 63 58 53 52 55 50 84 96 99 103 108 107 104 103 103 101 102 100 95
134 126 122 123 138 151 150 148 145 145 145 142 140 140 138 136 134 133 132 125 121 116 112 111 109 104 98 94 88 85 89 91 88 82 89 90 92 99 107 102 109 102 98 99 95 81 85 96 88 96 107 113 110 111 116 110 103 98 101 102 99 95 89 79 71 62 60 57 57 55 52 56 89 96 106 110 108 105 105 106 106 105 99 97 94
133 131 132 132 144 148 150 152 150 150 149 144 143 142 140 138 136 138 135 128 122 117 113 118 115 112 107 99 101 99 88 82 91 95 88 95 97 108 107 113 108 109 97 89 94 100 93 82 92 95 101 103 113 119 112 109 109 107 104 100 97 95 88 75 68 60 60 59 53 57 62 67 101 103 105 106 104 105 106 107 105 103 100 96 95
130 132 133 132 133 128 135 148 148 151 152 147 146 144 142 141 142 142 137 134 128 124 124 121 121 120 115 111 107 109 105 103 100 102 104 102 107 104 108 105 107 101 89 82 76 68 91 103 93 91 89 94 94 93 97 103 106 104 104 106 102 100 93 83 69 61 60 57 55 52 52 99 103 105 107 107 107 108 108 107 108 105 103 100 97
131 130 133 135 133 138 127 138 160 163 153 151 149 145 146 149 147 143 144 141 136 130 132 134 131 126 126 121 118 116 116 118 115 106 102 103 111 108 106 106 104 93 85 75 74 78 66 69 90 89 90 96 93 98 105 108 107 112 108 107 107 105 98 86 69 63 64 66 53 42 63 85 102 106 107 109 113 111 112 111 111 109 104 108 99
127 131 132 137 133 144 148 153 173 150 150 152 151 150 152 154 152 148 150 147 143 141 144 143 138 131 127 126 124 117 115 117 111 106 111 116 112 117 121 108 94 89 82 81 73 65 69 62 69 83 90 87 88 90 96 96 97 95 102 104 107 106 100 86 73 67 73 65 46 48 39 105 104 109 110 115 117 116 114 114 109 106 106 105 103
124 130 133 139 142 142 136 139 129 118 110 106 111 154 158 157 155 154 153 151 150 148 145 147 135 133 133 128 122 124 135 115 108 106 108 119 109 103 95 86 90 86 82 83 84 78 68 63 62 73 82 84 94 96 94 96 99 103 101 105 105 104 91 76 65 52 61 54 42 35 71 84 110 115 118 122 121 121 115 110 104 102 106 104 101
121 128 136 130 127 121 116 110 105 108 106 96 108 151 163 159 155 155 156 155 152 147 145 132 140 119 127 104 103 93 111 118 117 111 114 89 90 96 93 93 91 91 82 80 79 88 88 74 68 68 84 90 81 80 78 81 85 91 94 97 96 85 74 62 59 55 46 67 54 31 73 96 122 125 129 124 116 104 112 114 114 114 109 101 99
130 138 137 130 121 106 111 108 107 108 101 92 80 121 151 155 157 160 157 158 137 114 124 130 125 116 115 123 100 64 70 79 65 72 76 91 90 94 96 96 100 90 84 86 94 83 80 77 74 67 66 68 61 68 84 85 88 98 95 90 86 75 73 73 69 71 44 37 51 41 51 82 75 95 111 115 113 130 123 122 122 121 109 103 99
148 142 141 136 116 113 122 115 105 101 98 91 98 121 142 115 68 98 115 116 132 130 111 94 91 74 109 95 70 78 74 99 98 76 30 66 80 92 90 96 85 85 86 87 88 89 85 88 77 74 69 68 51 36 59 92 99 104 97 87 81 88 69 76 79 81 49 35 37 22 43 114 123 125 126 127 142 132 129 122 116 111 109 110 100
154 149 142 141 130 123 125 115 111 108 110 105 110 115 93 85 66 91 107 118 113 107 87 87 71 90 85 77 77 71 73 78 90 97 92 92 95 97 103 95 95 97 99 88 88 90 88 88 90 81 68 54 45 41 57 33 56 78 83 80 80 89 90 89 84 66 55 22 15 333 149 117 116 138 175 138 142 127 122 122 122 108 102 97 92
155 155 150 137 140 147 143 123 127 125 119 109 103 104 89 98 97 89 89 88 92 87 95 99 89 88 87 86 80 76 69 62 92 80 56 36 47 70 75 82 88 87 70 53 61 79 77 72 71 58 46 42 38 48 57 62 70 64 78 86 100 107 97 108 106 92 67 28 331 15 63 99 125 124 117 137 136 132 126 119 109 105 104 96 84
150 140 144 154 152 156 147 133 123 127 123 118 122 113 102 103 100 98 92 87 95 89 97 99 101 94 93 91 86 77 69 68 67 58 54 52 62 55 46 46 57 54 63 59 55 60 62 60 44 48 47 43 49 51 54 73 80 71 74 87 100 115 127 131 124 120 98 10 322 106 128 160 219 224 171 160 157 152 122 103 97 108 99 88 83
144 152 163 158 163 163 157 142 133 131 130 130 134 145 127 116 112 113 101 93 101 101 97 105 103 99 100 94 82 78 75 76 67 62 53 60 62 63 53 59 60 54 48 67 48 49 50 47 50 54 46 51 65 72 69 90 100 80 76 87 104 113 123 136 135 133 144 194 294 258 282 261 224 230 236 197 192 166 123 108 104 103 98 95 75
163 158 159 158 161 164 154 138 142 133 124 133 132 134 122 124 116 119 112 108 105 103 99 99 100 103 95 98 93 88 83 87 76 69 56 59 67 60 63 56 68 67 51 57 44 37 33 34 40 53 46 65 71 58 88 88 87 105 92 98 107 112 119 133 145 142 160 194 268 199 232 212 215 223 234 227 222 209 221 263 303 338 28 34 55
150 153 160 165 162 167 157 151 144 140 134 140 133 129 128 125 146 134 111 134 117 107 105 103 105 104 105 99 101 100 108 93 91 77 69 69 65 65 68 60 59 79 74 68 37 16 13 25 7 353 4 39 94 129 136 116 104 108 123 109 124 134 134 144 150 153 165 199 247 218 218 234 232 235 232 230 223 234 260 284 292 357 357 47 98
159 162 159 162 163 163 161 157 154 148 138 144 143 139 137 129 133 120 133 141 118 120 121 114 108 113 103 110 114 103 95 101 95 87 75 61 53 54 57 62 44 46 51 47 55 6 359 355 319 310 322 239 209 174 146 128 117 117 137 139 138 153 153 156 172 176 173 211 227 261 219 230 225 229 240 233 237 235 242 257 262 278 283 286 308
169 159 160 164 160 154 165 163 160 151 147 153 143 149 151 146 137 139 150 134 135 130 128 118 108 113 102 109 109 115 114 116 107 101 93 65 55 46 49 32 42 24 47 346 1 31 328 253 258 265 264 266 237 229 167 149 148 145 144 154 153 168 169 170 186 197 193 209 273 281 241 224 238 240 241 248 264 257 243 242 246 240 270 288 295
157 166 166 165 160 158 167 163 161 167 148 160 159 159 156 154 147 141 146 130 139 136 126 124 117 120 115 106 119 122 120 116 117 121 104 104 68 62 36 32 356 9 29 301 329 309 272 266 277 276 273 256 231 223 164 154 152 157 166 172 173 159 172 181 199 203 211 233 263 276 304 263 243 254 250 259 262 274 289 295 294 291 281 277 275
167 171 169 162 162 164 166 164 166 166 165 166 173 170 173 160 149 145 146 135 141 139 137 136 146 134 122 117 128 128 128 123 126 127 127 130 137 86 17 7 288 299 302 297 312 332 293 277 247 244 252 252 266 159 145 147 164 175 168 191 173 174 177 184 204 207 223 232 252 282 292 309 281 254 260 261 262 273 281 291 292 287 278 277 274
170 166 162 166 170 164 165 169 166 167 169 171 178 179 167 159 151 156 155 141 147 143 151 166 157 157 146 133 140 143 133 144 145 144 139 128 128 163 278 250 268 288 291 286 298 345 22 349 351 327 72 70 78 90 117 139 149 183 187 207 191 211 199 195 209 213 216 225 231 255 279 302 314 299 271 259 271 266 265 266 270 270 270 273 275
161 164 162 175 170 167 164 167 170 172 176 175 175 178 178 164 151 152 157 143 151 156 172 162 169 170 160 150 152 161 142 148 146 147 123 129 131 167 263 284 270 274 291 349 26 42 26 20 358 11 4 39 50 146 143 150 149 158 214 208 199 218 209 233 233 242 245 242 249 263 280 291 298 297 317 291 270 269 270 267 266 266 268 269 273
157 165 174 172 170 167 164 170 172 172 179 180 182 184 178 166 158 158 164 156 156 165 172 163 182 173 159 156 160 174 149 152 151 150 154 141 161 241 274 264 278 254 69 84 115 54 51 54 21 33 349 20 53 155 164 165 160 186 210 214 219 200 215 231 241 249 247 256 259 262 262 266 268 269 285 282 305 297 286 277 273 274 273 275 280
168 167 167 169 172 167 166 169 169 173 182 182 185 181 178 173 162 166 157 163 158 177 182 179 172 168 166 163 168 187 152 155 148 147 151 159 171 224 258 275 230 126 89 103 92 68 52 60 46 112 42 355 357 11 103 155 170 198 201 218 224 218 216 228 233 238 240 238 242 245 245 250 253 263 254 257 260 275 277 277 279 280 283 281 283
165 166 168 169 172 170 172 169 171 175 179 184 178 175 168 174 169 170 166 166 174 183 184 168 167 175 176 172 171 195 150 156 150 149 155 164 177 218 253 229 180 137 88 71 77 72 56 54 44 33 45 138 327 23 77 150 173 211 200 217 222 220 226 220 230 233 231 228 234 236 238 241 248 250 250 253 252 251 262 268 279 283 281 282 284
172 169 170 171 174 172 173 172 171 172 177 182 179 172 173 167 172 173 167 180 188 175 169 168 183 183 175 185 171 192 165 167 150 150 155 166 173 195 207 186 144 94 77 44 54 80 66 77 59 29 355 153 195 82 96 171 180 192 213 224 233 227 238 233 232 233 221 232 229 234 236 244 247 247 253 255 255 254 255 262 267 273 274 274 275
176 172 170 170 168 172 171 177 171 173 176 175 169 163 153 155 160 169 180 194 192 180 168 179 182 177 186 178 165 189 184 170 150 146 150 163 146 170 178 163 121 102 77 45 22 43 83 82 77 18 341 291 244 193 126 162 181 208 229 242 231 251 264 265 245 246 236 240 240 240 231 240 240 247 250 252 256 256 256 257 260 263 268 274 278
175 173 171 169 169 171 174 174 171 172 163 166 157 153 154 168 172 168 187 202 196 184 185 190 171 180 180 167 169 178 190 165 151 142 144 146 157 181 165 142 127 121 127 152 211 349 119 79 50 31 348 53 26 349 73 112 79 99 259 287 250 249 254 231 238 235 241 238 238 243 240 230 227 239 240 240 243 251 251 249 255 258 265 269 271
175 175 173 175 174 174 174 182 176 169 163 169 172 166 171 170 165 185 197 191 190 190 189 187 185 179 170 167 168 175 175 166 152 147 156 171 168 161 142 131 125 146 173 197 190 185 114 109 103 27 27 60 55 1 63 111 112 50 14 2 317 266 255 228 222 217 223 228 227 233 238 240 235 233 233 233 238 237 242 243 248 255 262 269 269
183 177 180 180 177 173 179 180 172 176 173 178 180 179 182 186 171 183 174 173 177 181 193 197 192 177 167 167 171 165 168 172 157 155 154 165 161 170 174 172 171 185 186 149 165 185 109 92 95 49 40 82 83 314 265 130 26 144 133 327 325 318 279 238 224 228 222 223 221 228 225 236 240 233 225 225 233 237 239 238 239 246 245 254 263
179 181 184 179 177 177 179 176 180 182 181 177 177 189 189 176 172 175 173 155 200 194 194 191 177 170 167 164 159 161 166 170 160 158 155 172 171 166 183 167 174 188 189 284 288 237 101 92 85 105 347 45 60 255 278 161 136 147 113 72 7 357 327 342 284 254 230 228 224 233 231 238 243 232 218 224 228 235 240 236 240 241 248 249 259
181 183 181 182 182 182 177 177 182 186 183 180 183 179 168 164 161 154 166 151 170 175 145 108 153 148 168 159 154 162 170 169 162 161 161 167 169 177 161 171 182 186 181 197 217 236 162 123 100 101 104 3 13 346 357 49 130 133 29 28 248 103 343 327 322 297 290 242 222 229 226 241 245 234 210 235 240 242 242 238 242 244 248 248 252
185 187 183 184 186 185 182 178 179 186 186 182 177 156 143 135 120 88 108 85 55 114 132 154 177 183 150 164 181 167 172 171 166 170 168 168 168 165 171 173 172 178 163 191 202 218 196 157 150 127 104 137 55 326 333 46 77 116 132 104 4 14 235 274 332 292 354 266 216 241 235 244 251 248 242 245 239 239 254 251 245 249 246 248 247
189 189 186 185 183 183 182 179 178 182 186 182 170 160 166 160 151 154 164 177 167 164 185 187 176 182 197 167 158 175 176 175 168 173 176 160 169 174 170 171 176 179 180 191 201 205 208 197 183 176 139 136 111 65 327 353 54 105 123 135 165 128 301 293 25 312 322 278 298 252 227 234 236 243 243 258 254 254 238 260 253 254 251 250 251
193 187 186 186 185 181 180 180 180 181 182 180 170 167 166 171 175 180 183 187 182 197 188 184 179 193 177 165 178 174 181 178 178 176 176 172 162 169 171 180 189 178 188 162 195 217 220 210 163 169 172 129 102 75 275 287 353 83 111 109 92 92 153 58 314 5 341 320 345 342 311 292 259 250 255 257 261 262 253 252 262 263 260 254 255
188 185 186 185 186 182 180 182 182 181 179 173 173 178 179 180 181 180 185 193 194 189 183 182 182 175 175 183 162 186 184 186 178 178 178 175 166 172 173 175 189 189 194 201 204 211 213 225 197 177 146 145 138 144 265 277 233 284 77 72 55 59 72 95 145 212 216 300 315 323 255 312 290 248 248 253 247 247 255 245 251 258 261 258 251
188 187 188 187 186 182 181 182 185 180 178 173 174 184 185 185 185 179 186 198 187 177 168 171 174 171 184 179 179 182 188 188 187 180 178 176 182 177 176 179 189 199 208 202 201 193 205 213 212 183 174 152 154 145 139 252 215 234 17 23 79 51 57 34 100 100 163 182 284 284 307 319 315 268 255 255 261 248 242 242 237 249 248 251 241
189 188 189 184 183 180 182 183 188 184 178 177 177 182 189 186 184 185 189 186 175 156 161 173 175 173 189 191 190 179 189 196 194 186 180 183 187 178 178 185 195 196 209 207 191 197 199 199 207 216 183 195 158 166 199 240 219 295 325 120 60 43 44 77 76 112 67 127 250 306 318 338 341 308 324 288 268 259 247 243 245 247 249 248 243
186 185 188 187 184 184 184 186 190 184 179 182 179 183 187 188 191 187 188 181 176 167 166 179 172 175 191 195 187 196 185 197 186 193 192 185 188 187 185 191 189 193 206 195 202 206 201 193 188 189 206 207 180 170 227 226 196 199 190 168 172 195 209 263 266 142 104 284 330 314 313 253 261 317 293 312 283 275 245 233 244 250 242 255 249